• In Czech Republic
  • List of Countries
  • For 7 days
  • Water Temperature
  • Satellite Maps
  • Weather Map
  • Weather Widgets
  • user-avatar
    Login

    Hourly Weather Wien

    Today, 22 August, Tuesday

    Time Temperature Precipitation Wind Pressure Humidity
    00:00 +14°C° 0 mm 2 mps 748 mmHg 71%
    01:00 +14°C° 0 mm 2 mps 748 mmHg 73%
    02:00 +13°C° 0 mm 2 mps 748 mmHg 75%
    03:00 +13°C° 0 mm 2 mps 747 mmHg 76%
    04:00 +13°C° 0 mm 2 mps 747 mmHg 77%
    05:00 +14°C° 0 mm 2 mps 747 mmHg 73%
    06:00 +15°C° 0 mm 2 mps 747 mmHg 69%
    07:00 +16°C° 0 mm 3 mps 747 mmHg 65%
    08:00 +18°C° 0 mm 3 mps 747 mmHg 58%
    09:00 +20°C° 0 mm 3 mps 747 mmHg 52%
    10:00 +21°C° 0 mm 3 mps 747 mmHg 45%
    11:00 +22°C° 0 mm 3 mps 746 mmHg 42%
    12:00 +24°C° 0 mm 3 mps 746 mmHg 39%
    13:00 +25°C° 0 mm 3 mps 745 mmHg 36%
    14:00 +25°C° 0 mm 3 mps 745 mmHg 36%
    15:00 +25°C° 0 mm 4 mps 745 mmHg 36%
    16:00 +25°C° 0 mm 4 mps 744 mmHg 37%
    17:00 +22°C° 0 mm 3 mps 744 mmHg 43%
    18:00 +20°C° 0 mm 3 mps 744 mmHg 49%
    19:00 +19°C° 0 mm 3 mps 745 mmHg 55%
    20:00 +18°C° 0 mm 2 mps 745 mmHg 59%
    21:00 +17°C° 0 mm 2 mps 745 mmHg 63%
    22:00 +16°C° 0 mm 2 mps 745 mmHg 67%
    23:00 +15°C° 0 mm 2 mps 745 mmHg 70%

    Tomorrow, 23 August, Wednesday

    Time Temperature Precipitation Wind Pressure Humidity
    00:00 +14°C° 0 mm 2 mps 746 mmHg 73%
    01:00 +14°C° 0 mm 2 mps 746 mmHg 75%
    02:00 +13°C° 0 mm 2 mps 746 mmHg 77%
    03:00 +13°C° 0 mm 2 mps 746 mmHg 80%
    04:00 +12°C° 0 mm 1 mps 746 mmHg 82%
    05:00 +13°C° 0 mm 1 mps 746 mmHg 77%
    06:00 +15°C° 0 mm 1 mps 746 mmHg 73%
    07:00 +16°C° 0 mm 1 mps 746 mmHg 69%
    08:00 +19°C° 0 mm 1 mps 746 mmHg 62%
    09:00 +20°C° 0 mm 1 mps 746 mmHg 55%
    10:00 +22°C° 0 mm 1 mps 746 mmHg 49%
    11:00 +24°C° 0 mm 1 mps 746 mmHg 45%
    12:00 +25°C° 0 mm 2 mps 745 mmHg 41%
    13:00 +26°C° 0 mm 2 mps 745 mmHg 37%
    14:00 +26°C° 0 mm 2 mps 745 mmHg 37%
    15:00 +26°C° 0 mm 2 mps 745 mmHg 36%
    16:00 +26°C° 0 mm 1 mps 744 mmHg 35%
    17:00 +24°C° 0 mm 1 mps 744 mmHg 40%
    18:00 +22°C° 0 mm 1 mps 745 mmHg 45%
    19:00 +21°C° 0 mm 1 mps 745 mmHg 50%
    20:00 +20°C° 0 mm 1 mps 745 mmHg 51%
    21:00 +19°C° 0 mm 1 mps 745 mmHg 53%
    22:00 +18°C° 0 mm 1 mps 745 mmHg 55%
    23:00 +16°C° 0 mm 1 mps 745 mmHg 56%

    Day after tomorrow, 24 August, Thursday

    Time Temperature Precipitation Wind Pressure Humidity
    00:00 +16°C° 0 mm 1 mps 745 mmHg 58%
    01:00 +14°C° 0 mm 0 mps 745 mmHg 59%
    02:00 +15°C° 0 mm 1 mps 745 mmHg 60%
    03:00 +15°C° 0 mm 1 mps 745 mmHg 61%
    04:00 +15°C° 0 mm 1 mps 745 mmHg 62%
    05:00 +16°C° 0 mm 1 mps 745 mmHg 59%
    06:00 +18°C° 0 mm 1 mps 745 mmHg 57%
    07:00 +19°C° 0 mm 1 mps 745 mmHg 54%
    08:00 +21°C° 0 mm 1 mps 746 mmHg 50%
    09:00 +24°C° 0 mm 2 mps 746 mmHg 45%
    10:00 +26°C° 0 mm 2 mps 746 mmHg 40%
    11:00 +28°C° 0 mm 2 mps 745 mmHg 39%
    12:00 +29°C° 0 mm 2 mps 745 mmHg 37%
    13:00 +31°C° 0 mm 2 mps 745 mmHg 35%
    14:00 +31°C° 0 mm 2 mps 745 mmHg 36%
    15:00 +31°C° 0 mm 2 mps 744 mmHg 36%
    16:00 +32°C° 0 mm 1 mps 744 mmHg 36%
    17:00 +29°C° 0.2 mm 2 mps 744 mmHg 43%
    18:00 +27°C° 0.2 mm 2 mps 744 mmHg 50%
    19:00 +25°C° 0.2 mm 2 mps 744 mmHg 56%
    20:00 +24°C° 0 mm 2 mps 744 mmHg 60%
    21:00 +23°C° 0 mm 2 mps 744 mmHg 63%
    22:00 +23°C° 0 mm 2 mps 744 mmHg 66%
    23:00 +22°C° 0 mm 1 mps 744 mmHg 68%

    25 August, Friday

    Time Temperature Precipitation Wind Pressure Humidity
    00:00 +22°C° 0 mm 1 mps 744 mmHg 70%
    01:00 +21°C° 0 mm 1 mps 744 mmHg 72%
    02:00 +21°C° 0 mm 1 mps 744 mmHg 74%
    03:00 +21°C° 0 mm 1 mps 744 mmHg 75%
    04:00 +20°C° 0 mm 1 mps 744 mmHg 77%
    05:00 +21°C° 0 mm 1 mps 744 mmHg 74%
    06:00 +20°C° 0 mm 0 mps 744 mmHg 71%
    07:00 +21°C° 0 mm 0 mps 745 mmHg 68%
    08:00 +25°C° 0 mm 1 mps 745 mmHg 61%
    09:00 +27°C° 0 mm 1 mps 745 mmHg 55%
    10:00 +30°C° 0 mm 1 mps 745 mmHg 49%
    11:00 +31°C° 0 mm 1 mps 745 mmHg 45%
    12:00 +32°C° 0 mm 1 mps 744 mmHg 40%
    13:00 +34°C° 0 mm 2 mps 744 mmHg 36%
    14:00 +33°C° 0 mm 1 mps 744 mmHg 35%
    15:00 +33°C° 0 mm 1 mps 744 mmHg 34%
    16:00 +34°C° 0 mm 1 mps 743 mmHg 33%
    17:00 +32°C° 0 mm 1 mps 743 mmHg 38%
    18:00 +29°C° 0 mm 1 mps 743 mmHg 42%
    19:00 +27°C° 0 mm 1 mps 743 mmHg 47%
    20:00 +26°C° 0 mm 1 mps 743 mmHg 50%
    21:00 +26°C° 0 mm 1 mps 744 mmHg 52%
    22:00 +25°C° 0 mm 1 mps 744 mmHg 54%
    23:00 +24°C° 0 mm 1 mps 744 mmHg 56%

    26 August, Saturday

    Time Temperature Precipitation Wind Pressure Humidity
    00:00 +24°C° 0 mm 1 mps 743 mmHg 58%
    01:00 +23°C° 0 mm 1 mps 743 mmHg 60%
    02:00 +23°C° 0 mm 1 mps 743 mmHg 61%
    03:00 +22°C° 0 mm 1 mps 743 mmHg 63%
    04:00 +22°C° 0 mm 1 mps 743 mmHg 64%
    05:00 +23°C° 0 mm 1 mps 744 mmHg 63%
    06:00 +24°C° 0 mm 1 mps 744 mmHg 61%
    07:00 +25°C° 0 mm 1 mps 744 mmHg 59%
    08:00 +27°C° 0 mm 1 mps 744 mmHg 54%
    09:00 +29°C° 0 mm 1 mps 744 mmHg 48%
    10:00 +31°C° 0 mm 1 mps 744 mmHg 42%
    11:00 +33°C° 0 mm 1 mps 744 mmHg 38%
    12:00 +34°C° 0 mm 1 mps 744 mmHg 35%
    13:00 +36°C° 0 mm 2 mps 744 mmHg 31%
    14:00 +36°C° 0 mm 2 mps 743 mmHg 30%
    15:00 +37°C° 0 mm 2 mps 743 mmHg 28%
    16:00 +37°C° 0 mm 2 mps 743 mmHg 27%
    17:00 +35°C° 0 mm 2 mps 743 mmHg 31%
    18:00 +31°C° 0 mm 2 mps 743 mmHg 36%
    19:00 +29°C° 0 mm 1 mps 743 mmHg 40%
    20:00 +28°C° 0 mm 1 mps 743 mmHg 43%
    21:00 +27°C° 0 mm 1 mps 743 mmHg 45%
    22:00 +26°C° 0 mm 1 mps 743 mmHg 48%
    23:00 +25°C° 0 mm 1 mps 743 mmHg 50%

    27 August, Sunday

    Time Temperature Precipitation Wind Pressure Humidity
    00:00 +25°C° 0 mm 1 mps 743 mmHg 51%
    01:00 +24°C° 0 mm 1 mps 743 mmHg 53%
    02:00 +24°C° 0 mm 1 mps 743 mmHg 55%
    03:00 +23°C° 0 mm 1 mps 742 mmHg 57%
    04:00 +23°C° 0 mm 1 mps 742 mmHg 59%
    05:00 +24°C° 0 mm 2 mps 742 mmHg 58%
    06:00 +24°C° 0 mm 2 mps 743 mmHg 57%
    07:00 +25°C° 0 mm 2 mps 743 mmHg 56%
    08:00 +28°C° 0 mm 2 mps 743 mmHg 49%
    09:00 +30°C° 0 mm 3 mps 743 mmHg 43%
    10:00 +34°C° 0 mm 3 mps 743 mmHg 37%
    11:00 +35°C° 0 mm 3 mps 742 mmHg 33%
    12:00 +36°C° 0 mm 4 mps 742 mmHg 29%
    13:00 +38°C° 0 mm 4 mps 742 mmHg 26%
    14:00 +38°C° 0 mm 4 mps 741 mmHg 26%
    15:00 +38°C° 0 mm 4 mps 741 mmHg 26%
    16:00 +38°C° 0 mm 4 mps 741 mmHg 25%
    17:00 +35°C° 0 mm 3 mps 741 mmHg 31%
    18:00 +32°C° 0 mm 2 mps 741 mmHg 36%
    19:00 +30°C° 0 mm 1 mps 741 mmHg 41%
    20:00 +29°C° 0 mm 1 mps 741 mmHg 44%
    21:00 +28°C° 0 mm 2 mps 741 mmHg 47%
    22:00 +27°C° 0 mm 2 mps 741 mmHg 50%
    23:00 +26°C° 0 mm 2 mps 741 mmHg 53%
    Show more